Tracking 29034 objects as of 25-Jun-2024
HD Live streaming from Space Station
objects crossing your sky now

LEO 3

Track LEO 3 now!
10-day predictions


NORAD ID: 57392
Int'l Code: 2023-100G
Perigee: 1,001.0 km
Apogee: 1,027.3 km
Inclination: 99.5 °
Period: 105.3 minutes
Semi major axis: 7385 km
RCS: Unknown
Launch date: July 18, 2023
Source: Canada (CA)
Launch site: Rocket Lab Launch Complex (RLLC)
Your satellite tracking list
Your tracking list is empty




NASA's NSSDC Master Catalog

Two Line Element Set (TLE):
1 57392U 23100G   24176.90652116 -.00000008  00000-0  41872-4 0  9997
2 57392  99.4822 300.1828 0017841  80.6534 279.6627 13.67930050 46868
Source of the keplerian elements: AFSPC